FW9474 Weather Reports


Display with metric or nautical units.
time (UTC)temp
F
wind
direction
speed
MPH
gust
MPH
rain 1hr
in
rain 24hr
in
rain mn
in
humidity
%
barometer
mb
20260509011534 58 0 0.0 0.0 0.00 0.00 0.00 90 1014.9
20260509010035 58 0 0.0 0.0 0.00 0.00 0.00 89 1014.9
20260509004531 59 0 0.0 0.0 0.00 0.00 0.00 88 1014.8
20260509003034 59 0 0.0 0.0 0.00 0.00 0.00 87 1014.8
20260509001530 60 0 0.0 0.0 0.00 0.00 0.00 85 1014.7
20260509000027 61 0 0.0 0.0 0.00 0.00 0.00 81 1014.7
20260508234531 62 0 0.0 0.0 0.00 0.00 0.00 81 1014.7
20260508233035 63 0 0.0 0.0 0.00 0.00 0.00 77 1014.4
20260508231530 63 0 0.0 0.0 0.00 0.00 0.00 76 1014.4
20260508230028 64 188 1.0 3.0 0.00 0.00 0.00 73 1014.6
20260508224527 65 198 1.0 4.0 0.00 0.00 0.00 70 1014.4
20260508223030 65 200 1.0 4.0 0.00 0.00 0.00 68 1014.5
20260508221529 66 212 1.0 3.0 0.00 0.00 0.00 66 1014.5
20260508220030 66 204 2.0 4.0 0.00 0.00 0.00 64 1014.5
20260508214532 67 196 1.0 4.0 0.00 0.00 0.00 62 1014.3
20260508213028 67 197 1.0 6.0 0.00 0.00 0.00 61 1014.3
20260508211530 67 207 3.0 10.0 0.00 0.00 0.00 59 1014.4
20260508210035 68 244 4.0 9.0 0.00 0.00 0.00 56 1014.5
20260508204535 68 0 2.0 9.0 0.00 0.00 0.00 58 1014.5
20260508203035 68 197 2.0 8.0 0.00 0.00 0.00 56 1014.5
20260508201531 68 212 1.0 7.0 0.00 0.00 0.00 55 1014.7
20260508200029 69 155 4.0 9.0 0.00 0.00 0.00 58 1015.0
20260508194528 67 84 3.0 11.0 0.00 0.00 0.00 56 1015.1
20260508193030 68 122 3.0 8.0 0.00 0.00 0.00 56 1015.4
20260508191535 68 299 2.0 8.0 0.00 0.00 0.00 54 1015.7
20260508190031 69 212 1.0 7.0 0.00 0.00 0.00 58 1015.7
20260508184530 69 76 4.0 10.0 0.00 0.00 0.00 54 1016.0
20260508183029 67 94 6.0 11.0 0.00 0.00 0.00 55 1016.1
20260508181539 68 352 4.0 10.0 0.00 0.00 0.00 55 1016.5
20260508180030 67 253 2.0 9.0 0.00 0.00 0.00 56 1016.6
20260508174537 67 132 5.0 12.0 0.00 0.00 0.00 57 1017.0
20260508173028 67 180 3.0 9.0 0.00 0.00 0.00 56 1016.8
20260508171531 66 234 3.0 11.0 0.00 0.00 0.00 56 1017.1
20260508170030 65 212 6.0 12.0 0.00 0.00 0.00 54 1017.1
20260508164529 66 231 4.0 10.0 0.00 0.00 0.00 54 1017.4
20260508163029 65 302 4.0 10.0 0.00 0.00 0.00 56 1017.6
20260508161545 65 296 6.0 11.0 0.00 0.00 0.00 54 1017.9
20260508160028 65 273 5.0 9.0 0.00 0.00 0.00 57 1017.9
20260508154530 64 243 3.0 11.0 0.00 0.00 0.00 56 1018.2
20260508153049 64 228 1.0 13.0 0.00 0.00 0.00 57 1018.3
20260508151527 63 205 2.0 7.0 0.00 0.00 0.00 56 1018.4
20260508150029 63 127 1.0 6.0 0.00 0.00 0.00 56 1018.4
20260508144529 62 200 4.0 7.0 0.00 0.00 0.00 58 1018.4
20260508143045 61 218 4.0 6.0 0.00 0.00 0.00 62 1018.4
20260508141531 61 142 3.0 7.0 0.00 0.00 0.00 65 1018.3
20260508140030 60 0 1.0 7.0 0.00 0.00 0.00 64 1018.6
20260508134534 60 346 3.0 9.0 0.00 0.04 0.00 61 1018.7
20260508133028 60 92 2.0 7.0 0.00 0.04 0.00 63 1018.7
20260508131529 59 80 3.0 6.0 0.00 0.04 0.00 66 1018.7
20260508130028 58 57 1.0 4.0 0.00 0.04 0.00 75 1018.4
20260508124533 56 55 1.0 3.0 0.00 0.09 0.00 77 1018.2
20260508123029 53 0 0.0 0.0 0.00 0.09 0.00 90 1018.1
20260508121530 51 0 0.0 0.0 0.00 0.09 0.00 92 1017.9
20260508120028 50 0 0.0 0.0 0.00 0.09 0.00 93 1017.8
20260508114530 49 0 0.0 0.0 0.00 0.17 0.00 95 1017.6
20260508113029 47 258 0.0 2.0 0.00 0.17 0.00 96 1017.4
20260508111528 46 0 0.0 2.0 0.00 0.17 0.00 96 1017.1
20260508110034 46 281 1.0 2.0 0.00 0.17 0.00 96 1016.6
20260508104527 46 0 0.0 0.0 0.00 0.25 0.00 94 1016.5
20260508103039 47 0 0.0 0.0 0.00 0.25 0.00 94 1016.1
20260508101531 47 0 0.0 0.0 0.00 0.25 0.00 96 1016.0
20260508100046 46 0 0.0 0.0 0.00 0.25 0.00 96 1015.9
20260508094531 46 0 0.0 0.0 0.00 0.41 0.00 96 1015.7
20260508093036 46 0 0.0 0.0 0.00 0.41 0.00 96 1015.5
20260508091529 46 0 0.0 0.0 0.00 0.41 0.00 95 1015.6
20260508090033 47 0 0.0 0.0 0.00 0.41 0.00 95 1015.6
20260508084530 47 0 0.0 0.0 0.00 0.52 0.00 96 1015.2
20260508083028 47 0 0.0 0.0 0.00 0.52 0.00 95 1015.4
20260508081530 47 0 0.0 0.0 0.00 0.52 0.00 94 1015.3
20260508080027 48 0 0.0 0.0 0.00 0.52 0.00 94 1015.3
20260508074534 48 0 0.0 0.0 0.00 0.69 0.00 94 1015.2
20260508073027 49 0 0.0 0.0 0.00 0.69 0.00 93 1015.3
20260508071533 49 0 0.0 0.0 0.00 0.69 0.00 92 1015.2
20260508070030 49 0 0.0 2.0 0.00 0.69 0.00 92 1015.1
20260508064531 50 0 0.0 3.0 0.00 0.85 0.00 93 1015.0
20260508063034 49 0 0.0 4.0 0.00 0.85 0.00 93 1014.9
20260508061529 50 0 0.0 0.0 0.00 0.85 0.00 93 1014.9
20260508060029 49 0 0.0 0.0 0.00 0.85 0.00 94 1014.9
20260508054605 50 0 0.0 0.0 0.00 1.29 0.00 93 1015.0
20260508053045 50 0 0.0 0.0 0.00 1.29 0.00 93 1014.9
20260508051530 51 0 0.0 0.0 0.00 1.29 0.00 91 1015.2
20260508050030 51 0 0.0 0.0 0.00 1.29 0.00 91 1014.7
20260508044529 52 0 0.0 0.0 0.00 1.52 0.00 89 1014.9
20260508043035 53 0 0.0 0.0 0.00 1.52 0.00 85 1014.7
20260508041531 54 0 0.0 0.0 0.00 1.52 0.00 83 1014.6
20260508040032 54 0 0.0 0.0 0.00 1.52 0.00 84 1014.6
20260508034536 55 0 0.0 0.0 0.00 1.52 1.52 83 1014.4
20260508033033 57 0 0.0 3.0 0.00 1.52 1.52 77 1014.6
20260508031534 58 0 0.0 4.0 0.00 1.52 1.52 73 1014.5
20260508030030 58 0 1.0 7.0 0.00 1.52 1.52 71 1014.3
20260508024528 59 265 0.0 6.0 0.00 1.52 1.52 71 1014.1
20260508023031 59 259 2.0 7.0 0.00 1.52 1.52 71 1014.2
20260508021532 58 261 2.0 4.0 0.00 1.52 1.52 72 1013.9
20260508020031 60 268 2.0 4.0 0.00 1.52 1.52 68 1013.7
20260508014537 60 350 1.0 3.0 0.00 1.56 1.52 67 1013.3
20260508013031 61 237 2.0 5.0 0.00 1.56 1.52 64 1013.1